Weather History for KTSP - October, 2013

Change the Weather History Date:

Saturday, October 5, 2013

  Actual Average Record
Temperature  
Mean Temperature 58 °F -  
Max Temperature 71 °F 76 °F 84 °F (2014)
Min Temperature 46 °F 44 °F 42 °F (2011)
Degree Days  
Heating Degree Days 6    
Growing Degree Days 8 (Base 50)    
Moisture  
Dew Point 13 °F    
Average Humidity 18    
Maximum Humidity 32    
Minimum Humidity 9    
Precipitation  
Precipitation 0.00 in - - ()
Sea Level Pressure  
Sea Level Pressure 30.30 in    
Wind  
Wind Speed 14 mph (ESE)    
Max Wind Speed 25 mph    
Max Gust Speed 33 mph    
Visibility 10 miles    
Events      
Averages and records for this station are not official NWS values.
T = Trace of Precipitation, MM = Missing Value Source: NWS Daily Summary

Daily Weather History Graph

Daily Weather History Graph

Search for Another Location

Airport or City:

Trip Planner

Search our weather history database for the weather conditions in past years. The results will help you decide how hot, cold, wet, or windy it might be!

Date:

Astronomy

Oct. 05, 2013 Rise Set
Actual Time 6:51 AM PDT 6:31 PM PDT
Civil Twilight 6:26 AM PDT 6:56 PM PDT
Nautical Twilight 5:57 AM PDT 7:26 PM PDT
Astronomical Twilight 5:27 AM PDT 7:55 PM PDT
Moon 7:33 AM PDT (10/5) 6:57 PM PDT (10/5)
Length of Visible Light 12h 30m
Length of Day
11h 39m
New Moon, 1% of the Moon is Illuminated
Oct 5
New Moon
Oct 11
First Quarter
Oct 18
Full
Oct 26
Last Quarter
Nov 3
New

Hourly Weather History & Observations

Time (PDT) Temp. Windchill Dew Point Humidity Pressure Visibility Wind Dir Wind Speed Gust Speed Precip Events Conditions
12:15 AM 51.8 °F - 14.0 °F 22% 30.25 in 10.0 mi East 9.2 mph 19.6 mph N/A   Clear
12:35 AM 50.0 °F - 14.0 °F 24% 30.26 in 10.0 mi ESE 8.1 mph - N/A   Clear
12:55 AM 50.0 °F - 14.0 °F 24% 30.25 in 10.0 mi SE 13.8 mph - N/A   Clear
1:15 AM 53.6 °F - 14.0 °F 21% 30.25 in 10.0 mi SE 16.1 mph 23.0 mph N/A   Clear
1:35 AM 51.8 °F - 14.0 °F 22% 30.26 in 10.0 mi SE 12.7 mph - N/A   Clear
1:55 AM 50.0 °F - 14.0 °F 24% 30.26 in 10.0 mi SE 16.1 mph - N/A   Clear
2:15 AM 51.8 °F - 14.0 °F 22% 30.27 in 10.0 mi SE 13.8 mph 19.6 mph N/A   Clear
2:35 AM 50.0 °F - 14.0 °F 24% 30.27 in 10.0 mi SE 15.0 mph 18.4 mph N/A   Clear
2:55 AM 51.8 °F - 15.8 °F 24% 30.26 in 10.0 mi SE 17.3 mph 25.3 mph N/A   Clear
3:15 AM 50.0 °F - 15.8 °F 26% 30.27 in 10.0 mi SE 18.4 mph - N/A   Clear
3:35 AM 50.0 °F - 15.8 °F 26% 30.28 in 10.0 mi ESE 13.8 mph 19.6 mph N/A   Clear
3:55 AM 48.2 °F - 15.8 °F 27% 30.28 in 10.0 mi ESE 13.8 mph - N/A   Clear
4:15 AM 48.2 °F - 15.8 °F 27% 30.27 in 10.0 mi ESE 15.0 mph 19.6 mph N/A   Clear
4:35 AM 48.2 °F - 15.8 °F 27% 30.28 in 10.0 mi ESE 16.1 mph - N/A   Clear
4:55 AM 48.2 °F - 15.8 °F 27% 30.28 in 10.0 mi ESE 18.4 mph 23.0 mph N/A   Clear
5:15 AM 46.4 °F 39.2 °F 15.8 °F 29% 30.28 in 10.0 mi ESE 18.4 mph 26.5 mph N/A   Clear
5:35 AM 50.0 °F - 15.8 °F 26% 30.29 in 10.0 mi ESE 16.1 mph 23.0 mph N/A   Clear
5:55 AM 48.2 °F - 15.8 °F 27% 30.30 in 10.0 mi East 13.8 mph - N/A   Clear
6:15 AM 48.2 °F - 15.8 °F 27% 30.32 in 10.0 mi ESE 11.5 mph - N/A   Clear
6:35 AM 48.2 °F - 15.8 °F 27% 30.32 in 10.0 mi ESE 9.2 mph - N/A   Clear
6:55 AM 46.4 °F 42.9 °F 15.8 °F 29% 30.33 in 10.0 mi ESE 6.9 mph - N/A   Clear
7:15 AM 46.4 °F 42.4 °F 17.6 °F 32% 30.33 in 10.0 mi East 8.1 mph - N/A   Clear
7:35 AM 48.2 °F - 17.6 °F 30% 30.33 in 10.0 mi ESE 9.2 mph - N/A   Clear
7:55 AM 50.0 °F - 17.6 °F 28% 30.33 in 10.0 mi ESE 13.8 mph - N/A   Clear
8:15 AM 53.6 °F - 17.6 °F 24% 30.33 in 10.0 mi ESE 15.0 mph - N/A   Clear
8:35 AM 55.4 °F - 15.8 °F 21% 30.33 in 10.0 mi SE 20.7 mph 27.6 mph N/A   Clear
8:55 AM 57.2 °F - 15.8 °F 20% 30.33 in 10.0 mi SE 19.6 mph 28.8 mph N/A   Clear
9:15 AM 57.2 °F - 15.8 °F 20% 30.33 in 10.0 mi ESE 18.4 mph 31.1 mph N/A   Clear
9:35 AM 59.0 °F - 15.8 °F 19% 30.33 in 10.0 mi ESE 21.9 mph 29.9 mph N/A   Clear
9:55 AM 60.8 °F - 15.8 °F 17% 30.33 in 8.0 mi ESE 18.4 mph 29.9 mph N/A   Clear
10:15 AM 60.8 °F - 15.8 °F 17% 30.33 in 10.0 mi ESE 21.9 mph 28.8 mph N/A   Clear
10:35 AM 62.6 °F - 15.8 °F 16% 30.34 in 10.0 mi ESE 19.6 mph 27.6 mph N/A   Clear
10:55 AM 62.6 °F - 15.8 °F 16% 30.34 in 8.0 mi SE 21.9 mph 29.9 mph N/A   Clear
11:15 AM 64.4 °F - 14.0 °F 14% 30.34 in 7.0 mi ESE 24.2 mph 29.9 mph N/A   Clear
11:35 AM 64.4 °F - 14.0 °F 14% 30.34 in 9.0 mi East 23.0 mph 33.4 mph N/A   Clear
11:55 AM 64.4 °F - 14.0 °F 14% 30.34 in 9.0 mi East 18.4 mph 29.9 mph N/A   Clear
12:15 PM 66.2 °F - 14.0 °F 13% 30.34 in 10.0 mi ESE 16.1 mph 25.3 mph N/A   Clear
12:35 PM 66.2 °F - 14.0 °F 13% 30.33 in 10.0 mi ESE 16.1 mph 27.6 mph N/A   Clear
12:55 PM 66.2 °F - 14.0 °F 13% 30.33 in 9.0 mi East 16.1 mph 27.6 mph N/A   Clear
1:15 PM 68.0 °F - 14.0 °F 12% 30.32 in 8.0 mi East 13.8 mph 24.2 mph N/A   Clear
1:35 PM 68.0 °F - 12.2 °F 12% 30.31 in 10.0 mi East 20.7 mph 26.5 mph N/A   Clear
1:55 PM 69.8 °F - 10.4 °F 10% 30.30 in 10.0 mi East 25.3 mph 31.1 mph N/A   Clear
2:15 PM 69.8 °F - 10.4 °F 10% 30.29 in 10.0 mi ENE 20.7 mph 27.6 mph N/A   Clear
2:35 PM 69.8 °F - 10.4 °F 10% 30.29 in 10.0 mi East 20.7 mph 27.6 mph N/A   Clear
2:55 PM 71.6 °F - 8.6 °F 9% 30.29 in 10.0 mi East 16.1 mph 25.3 mph N/A   Clear
3:15 PM 71.6 °F - 10.4 °F 9% 30.29 in 10.0 mi ESE 17.3 mph 27.6 mph N/A   Clear
3:35 PM 69.8 °F - 10.4 °F 10% 30.28 in 10.0 mi East 16.1 mph 23.0 mph N/A   Clear
3:55 PM 69.8 °F - 10.4 °F 10% 30.28 in 10.0 mi ESE 17.3 mph 26.5 mph N/A   Clear
4:15 PM 69.8 °F - 10.4 °F 10% 30.28 in 10.0 mi ESE 18.4 mph 23.0 mph N/A   Clear
4:35 PM 68.0 °F - 8.6 °F 10% 30.28 in 10.0 mi ESE 17.3 mph 24.2 mph N/A   Clear
4:55 PM 68.0 °F - 8.6 °F 10% 30.28 in 10.0 mi SE 19.6 mph 25.3 mph N/A   Clear
5:15 PM 68.0 °F - 8.6 °F 10% 30.28 in 10.0 mi ESE 13.8 mph 23.0 mph N/A   Clear
5:35 PM 68.0 °F - 8.6 °F 10% 30.28 in 10.0 mi ESE 18.4 mph 21.9 mph N/A   Clear
5:55 PM 66.2 °F - 8.6 °F 11% 30.28 in 10.0 mi ESE 13.8 mph 18.4 mph N/A   Clear
6:15 PM 66.2 °F - 8.6 °F 11% 30.28 in 10.0 mi ESE 12.7 mph - N/A   Clear
6:35 PM 62.6 °F - 8.6 °F 12% 30.28 in 10.0 mi SE 11.5 mph - N/A   Clear
6:55 PM 59.0 °F - 8.6 °F 14% 30.28 in 10.0 mi ESE 9.2 mph - N/A   Clear
7:15 PM 59.0 °F - 6.8 °F 13% 30.28 in 10.0 mi ESE 10.4 mph - N/A   Clear
7:35 PM 59.0 °F - 6.8 °F 13% 30.29 in 10.0 mi ESE 12.7 mph - N/A   Clear
7:55 PM 59.0 °F - 6.8 °F 13% 30.29 in 10.0 mi East 11.5 mph - N/A   Clear
8:15 PM 57.2 °F - 8.6 °F 14% 30.29 in 10.0 mi East 10.4 mph 17.3 mph N/A   Clear
8:35 PM 59.0 °F - 8.6 °F 14% 30.29 in 10.0 mi East 10.4 mph - N/A   Clear
8:55 PM 59.0 °F - 10.4 °F 15% 30.30 in 10.0 mi ESE 10.4 mph - N/A   Clear
9:15 PM 57.2 °F - 10.4 °F 16% 30.30 in 10.0 mi ESE 10.4 mph 16.1 mph N/A   Clear
9:35 PM 55.4 °F - 10.4 °F 17% 30.30 in 10.0 mi ESE 9.2 mph - N/A   Clear
9:55 PM 57.2 °F - 10.4 °F 16% 30.29 in 10.0 mi ESE 11.5 mph - N/A   Clear
10:15 PM 55.4 °F - 10.4 °F 17% 30.29 in 10.0 mi ESE 11.5 mph - N/A   Clear
10:35 PM 57.2 °F - 12.2 °F 17% 30.29 in 10.0 mi ESE 12.7 mph 20.7 mph N/A   Clear
10:55 PM 57.2 °F - 10.4 °F 16% 30.29 in 10.0 mi East 11.5 mph - N/A   Clear
11:15 PM 55.4 °F - 10.4 °F 17% 30.29 in 10.0 mi ESE 11.5 mph - N/A   Clear
11:35 PM 55.4 °F - 12.2 °F 18% 30.29 in 9.0 mi SE 17.3 mph 23.0 mph N/A   Clear
11:55 PM 57.2 °F - 12.2 °F 17% 30.29 in 7.0 mi SE 13.8 mph - N/A   Clear